• In Hungary
  • List of Countries
  • For 7 days
  • Water Temperature
  • Satellite Maps
  • Weather Map
  • News
  • Weather Widgets
  • user-avatar
    Login

    Hourly Weather Ostrovskiy

    Today, 23 October, Tuesday

    Time Temperature Precipitation Wind Pressure Humidity
    00:00 +1°C° 0 mm 3 mps 740 mmHg 83%
    01:00 +1°C° 0 mm 3 mps 739 mmHg 84%
    02:00 +1°C° 0 mm 3 mps 738 mmHg 83%
    03:00 +1°C° 0 mm 3 mps 737 mmHg 84%
    04:00 +1°C° 0 mm 3 mps 737 mmHg 84%
    05:00 -1°C° 0 mm 4 mps 736 mmHg 85%
    06:00 0°C° 0 mm 4 mps 736 mmHg 83%
    07:00 0°C° 0 mm 4 mps 735 mmHg 82%
    08:00 +1°C° 0 mm 5 mps 735 mmHg 80%
    09:00 +2°C° 0 mm 5 mps 734 mmHg 78%
    10:00 +3°C° 0 mm 5 mps 734 mmHg 76%
    11:00 +5°C° 0 mm 5 mps 733 mmHg 74%
    12:00 +5°C° 0.1 mm 5 mps 733 mmHg 75%
    13:00 +5°C° 0.1 mm 5 mps 732 mmHg 77%
    14:00 +5°C° 0.1 mm 4 mps 732 mmHg 79%
    15:00 +5°C° 0.1 mm 4 mps 731 mmHg 81%
    16:00 +4°C° 0.1 mm 4 mps 731 mmHg 84%
    17:00 +4°C° 0.1 mm 4 mps 730 mmHg 86%
    18:00 +4°C° 0 mm 4 mps 730 mmHg 87%
    19:00 +4°C° 0 mm 4 mps 729 mmHg 87%
    20:00 +4°C° 0 mm 4 mps 728 mmHg 88%
    21:00 +4°C° 0 mm 4 mps 728 mmHg 87%
    22:00 +4°C° 0 mm 4 mps 727 mmHg 86%
    23:00 +4°C° 0 mm 4 mps 726 mmHg 85%

    Tomorrow, 24 October, Wednesday

    Time Temperature Precipitation Wind Pressure Humidity
    00:00 +4°C° 0.2 mm 4 mps 725 mmHg 85%
    01:00 +4°C° 0.2 mm 4 mps 725 mmHg 85%
    02:00 +4°C° 0.2 mm 4 mps 724 mmHg 84%
    03:00 +2°C° 0.2 mm 5 mps 723 mmHg 84%
    04:00 +2°C° 0.2 mm 5 mps 722 mmHg 83%
    05:00 +2°C° 0.2 mm 5 mps 721 mmHg 82%
    06:00 +3°C° 0.2 mm 5 mps 721 mmHg 82%
    07:00 +3°C° 0.2 mm 6 mps 720 mmHg 82%
    08:00 +3°C° 0.2 mm 6 mps 719 mmHg 82%
    09:00 +4°C° 0.5 mm 6 mps 719 mmHg 82%
    10:00 +4°C° 0.5 mm 6 mps 718 mmHg 82%
    11:00 +4°C° 0.5 mm 7 mps 717 mmHg 82%
    12:00 +5°C° 0.2 mm 6 mps 717 mmHg 82%
    13:00 +5°C° 0.2 mm 6 mps 717 mmHg 82%
    14:00 +7°C° 0.2 mm 5 mps 716 mmHg 82%
    15:00 +6°C° 0.4 mm 5 mps 716 mmHg 84%
    16:00 +6°C° 0.4 mm 5 mps 716 mmHg 86%
    17:00 +5°C° 0.4 mm 4 mps 716 mmHg 88%
    18:00 +5°C° 0.1 mm 4 mps 716 mmHg 88%
    19:00 +4°C° 0.1 mm 4 mps 716 mmHg 89%
    20:00 +4°C° 0.1 mm 4 mps 717 mmHg 90%
    21:00 +4°C° 0 mm 4 mps 717 mmHg 90%
    22:00 +4°C° 0 mm 4 mps 717 mmHg 91%
    23:00 +3°C° 0 mm 3 mps 717 mmHg 91%

    Day after tomorrow, 25 October, Thursday

    Time Temperature Precipitation Wind Pressure Humidity
    00:00 +3°C° 0 mm 3 mps 717 mmHg 91%
    01:00 +3°C° 0 mm 3 mps 717 mmHg 92%
    02:00 +2°C° 0 mm 3 mps 717 mmHg 92%
    03:00 +2°C° 0 mm 3 mps 717 mmHg 93%
    04:00 +1°C° 0 mm 3 mps 717 mmHg 93%
    05:00 +1°C° 0 mm 3 mps 717 mmHg 94%
    06:00 0°C° 0.1 mm 4 mps 717 mmHg 92%
    07:00 0°C° 0.1 mm 4 mps 717 mmHg 90%
    08:00 +1°C° 0.1 mm 5 mps 717 mmHg 88%
    09:00 +1°C° 0.5 mm 5 mps 717 mmHg 87%
    10:00 +2°C° 0.5 mm 5 mps 717 mmHg 86%
    11:00 +2°C° 0.5 mm 5 mps 717 mmHg 85%
    12:00 +2°C° 0.4 mm 5 mps 718 mmHg 84%
    13:00 +3°C° 0.4 mm 5 mps 718 mmHg 84%
    14:00 +3°C° 0.4 mm 6 mps 718 mmHg 83%
    15:00 +2°C° 0.2 mm 5 mps 719 mmHg 82%
    16:00 +2°C° 0.2 mm 5 mps 720 mmHg 82%
    17:00 +2°C° 0.2 mm 5 mps 720 mmHg 82%
    18:00 +1°C° 0.1 mm 5 mps 721 mmHg 82%
    19:00 +1°C° 0.1 mm 4 mps 721 mmHg 83%
    20:00 +1°C° 0.1 mm 4 mps 722 mmHg 83%
    21:00 0°C° 0 mm 4 mps 722 mmHg 83%
    22:00 0°C° 0 mm 4 mps 723 mmHg 83%
    23:00 0°C° 0 mm 4 mps 723 mmHg 83%

    26 October, Friday

    Time Temperature Precipitation Wind Pressure Humidity
    00:00 0°C° 0 mm 4 mps 723 mmHg 82%
    01:00 0°C° 0 mm 4 mps 724 mmHg 82%
    02:00 0°C° 0 mm 3 mps 724 mmHg 82%
    03:00 0°C° 0 mm 4 mps 725 mmHg 81%
    04:00 0°C° 0 mm 4 mps 725 mmHg 81%
    05:00 0°C° 0 mm 4 mps 725 mmHg 81%
    06:00 0°C° 0 mm 4 mps 726 mmHg 81%
    07:00 0°C° 0 mm 4 mps 726 mmHg 81%
    08:00 0°C° 0 mm 4 mps 727 mmHg 81%
    09:00 +1°C° 0 mm 5 mps 727 mmHg 76%
    10:00 +2°C° 0 mm 5 mps 728 mmHg 72%
    11:00 +3°C° 0 mm 5 mps 728 mmHg 67%
    12:00 +3°C° 0 mm 5 mps 728 mmHg 67%
    13:00 +3°C° 0 mm 5 mps 728 mmHg 66%
    14:00 +3°C° 0 mm 5 mps 728 mmHg 65%
    15:00 +2°C° 0.1 mm 5 mps 729 mmHg 70%
    16:00 +3°C° 0.1 mm 4 mps 729 mmHg 75%
    17:00 +1°C° 0.1 mm 4 mps 729 mmHg 79%
    18:00 +1°C° 0.2 mm 4 mps 730 mmHg 81%
    19:00 +1°C° 0.2 mm 5 mps 730 mmHg 82%
    20:00 +1°C° 0.2 mm 5 mps 730 mmHg 84%
    21:00 0°C° 0 mm 5 mps 731 mmHg 86%
    22:00 -1°C° 0 mm 4 mps 731 mmHg 88%
    23:00 -1°C° 0 mm 4 mps 732 mmHg 90%

    27 October, Saturday

    Time Temperature Precipitation Wind Pressure Humidity
    00:00 -1°C° 0 mm 4 mps 732 mmHg 90%
    01:00 -2°C° 0 mm 4 mps 733 mmHg 90%
    02:00 -2°C° 0 mm 4 mps 733 mmHg 90%
    03:00 -2°C° 0 mm 4 mps 734 mmHg 91%
    04:00 -2°C° 0 mm 4 mps 734 mmHg 91%
    05:00 -2°C° 0 mm 4 mps 734 mmHg 92%
    06:00 -2°C° 0 mm 5 mps 735 mmHg 90%
    07:00 -1°C° 0 mm 5 mps 735 mmHg 89%
    08:00 -1°C° 0 mm 5 mps 735 mmHg 87%
    09:00 0°C° 0 mm 5 mps 735 mmHg 82%
    10:00 +2°C° 0 mm 6 mps 735 mmHg 77%
    11:00 +3°C° 0 mm 6 mps 735 mmHg 72%
    12:00 +3°C° 0 mm 7 mps 734 mmHg 71%
    13:00 +4°C° 0 mm 7 mps 734 mmHg 71%
    14:00 +4°C° 0 mm 7 mps 733 mmHg 71%
    15:00 +4°C° 0.3 mm 8 mps 732 mmHg 75%
    16:00 +4°C° 0.3 mm 8 mps 732 mmHg 79%
    17:00 +4°C° 0.3 mm 8 mps 731 mmHg 82%
    18:00 +5°C° 0.4 mm 8 mps 731 mmHg 82%
    19:00 +5°C° 0.4 mm 8 mps 730 mmHg 81%
    20:00 +6°C° 0.4 mm 9 mps 730 mmHg 81%
    21:00 +6°C° 0.5 mm 8 mps 730 mmHg 82%
    22:00 +6°C° 0.5 mm 7 mps 730 mmHg 83%
    23:00 +6°C° 0.5 mm 7 mps 730 mmHg 84%

    28 October, Sunday

    Time Temperature Precipitation Wind Pressure Humidity
    00:00 +5°C° 0 mm 6 mps 730 mmHg 85%
    01:00 +4°C° 0 mm 6 mps 731 mmHg 85%
    02:00 +4°C° 0 mm 6 mps 731 mmHg 86%
    03:00 +3°C° 0 mm 6 mps 731 mmHg 86%
    04:00 +3°C° 0 mm 6 mps 732 mmHg 86%
    05:00 +2°C° 0 mm 6 mps 732 mmHg 86%
    06:00 +2°C° 0 mm 6 mps 733 mmHg 85%
    07:00 +2°C° 0 mm 6 mps 734 mmHg 83%
    08:00 +2°C° 0 mm 6 mps 735 mmHg 82%
    09:00 +2°C° 0 mm 5 mps 736 mmHg 78%
    10:00 +2°C° 0 mm 5 mps 737 mmHg 74%
    11:00 +2°C° 0 mm 5 mps 737 mmHg 70%
    12:00 +4°C° 0 mm 4 mps 738 mmHg 69%
    13:00 +4°C° 0 mm 4 mps 738 mmHg 69%
    14:00 +4°C° 0 mm 3 mps 739 mmHg 68%
    15:00 +4°C° 0 mm 2 mps 739 mmHg 71%
    16:00 +4°C° 0 mm 2 mps 740 mmHg 74%
    17:00 +4°C° 0 mm 1 mps 740 mmHg 77%
    18:00 +4°C° 0 mm 1 mps 741 mmHg 78%
    19:00 +4°C° 0 mm 1 mps 741 mmHg 79%
    20:00 +4°C° 0 mm 1 mps 742 mmHg 80%
    21:00 +4°C° 0 mm 1 mps 742 mmHg 80%
    22:00 +4°C° 0 mm 1 mps 742 mmHg 81%
    23:00 +3°C° 0 mm 1 mps 743 mmHg 82%

    29 October, Monday

    Time Temperature Precipitation Wind Pressure Humidity
    00:00 +2°C° 0 mm 2 mps 743 mmHg 81%
    01:00 +2°C° 0 mm 2 mps 743 mmHg 81%
    02:00 +1°C° 0 mm 3 mps 743 mmHg 80%
    03:00 +1°C° 0.1 mm 3 mps 743 mmHg 80%
    04:00 0°C° 0.1 mm 4 mps 743 mmHg 81%
    05:00 0°C° 0.1 mm 4 mps 743 mmHg 81%
    06:00 0°C° 1 mm 5 mps 743 mmHg 83%
    07:00 0°C° 1 mm 5 mps 743 mmHg 84%
    08:00 0°C° 1 mm 5 mps 743 mmHg 86%
    09:00 0°C° 0.5 mm 5 mps 743 mmHg 87%
    10:00 +1°C° 0.5 mm 5 mps 742 mmHg 88%
    11:00 +1°C° 0.5 mm 6 mps 742 mmHg 89%
    12:00 +1°C° 0.1 mm 5 mps 742 mmHg 89%
    13:00 +1°C° 0.1 mm 5 mps 742 mmHg 89%
    14:00 +2°C° 0.1 mm 5 mps 741 mmHg 90%
    15:00 +2°C° 0 mm 5 mps 741 mmHg 91%
    16:00 +2°C° 0 mm 5 mps 741 mmHg 92%
    17:00 +2°C° 0 mm 5 mps 741 mmHg 93%
    18:00 +3°C° 0 mm 5 mps 741 mmHg 94%
    19:00 +4°C° 0 mm 4 mps 741 mmHg 95%
    20:00 +5°C° 0 mm 4 mps 741 mmHg 96%
    21:00 +5°C° 0 mm 4 mps 741 mmHg 96%
    22:00 +6°C° 0 mm 4 mps 741 mmHg 96%
    23:00 +6°C° 0 mm 4 mps 741 mmHg 95%
    Show more